Location: *
(53.9002°N, 27.5624°E)
Time: 03:38:46
(UTC+00:00)

CENTAUR R/B - Pass Details

Date: 12 November 2019
Orbit: 779 x 1409 km, 63.4° (Epoch: 01 December)

Event Time Altitude Azimuth Distance (km) Brightness Sun altitude
Rises 19:23:02 0° 309° (NW) 4,005 6.5 -43.7°
Reaches altitude 10° 19:25:36 10° 311° (NW) 3,125 5.7 -44.0°
Enters shadow 19:29:39 37° 316° (NW) 1,873 4.2 -44.4°
